Date,MW,Mvar
01/01/2018 00:15,6.47,0.4
01/01/2018 00:30,6.58,0.38
01/01/2018 00:45,6.6,0.39
01/01/2018 01:00,6.41,0.42
01/01/2018 01:15,6.24,0.42
01/01/2018 01:30,6.02,0.4
01/01/2018 01:45,5.84,0.33
01/01/2018 02:00,5.76,0.34
01/01/2018 02:15,5.55,0.32
01/01/2018 02:30,5.34,0.32
01/01/2018 02:45,5.28,0.32
01/01/2018 03:00,5.16,0.32
01/01/2018 03:15,5.16,0.33
01/01/2018 03:30,5.05,0.28
01/01/2018 03:45,4.97,0.27
01/01/2018 04:00,4.97,0.28
01/01/2018 04:15,5.09,0.35
01/01/2018 04:30,5.01,0.31
01/01/2018 04:45,5.06,0.36
01/01/2018 05:00,5.11,0.36
01/01/2018 05:15,5.12,0.43
01/01/2018 05:30,5.06,0.39
01/01/2018 05:45,5.06,0.37
01/01/2018 06:00,5.1,0.38
01/01/2018 06:15,5.25,0.49
01/01/2018 06:30,5.23,0.46
01/01/2018 06:45,5.21,0.45
01/01/2018 07:00,5.26,0.46
01/01/2018 07:15,5.91,0.71
01/01/2018 07:30,6.03,0.78
01/01/2018 07:45,6.12,0.87
01/01/2018 08:00,6.09,0.78
01/01/2018 08:15,6.21,0.85
01/01/2018 08:30,6.24,0.9
01/01/2018 08:45,6.33,0.89
01/01/2018 09:00,6.56,1.09
01/01/2018 09:15,6.6,1.12
01/01/2018 09:30,7,1.3
01/01/2018 09:45,7.01,1.19
01/01/2018 10:00,7.36,1.31
01/01/2018 10:15,7.54,1.42
01/01/2018 10:30,7.56,1.47
01/01/2018 10:45,7.75,1.61
01/01/2018 11:00,7.66,1.48
01/01/2018 11:15,7.75,1.55
01/01/2018 11:30,7.87,1.68
01/01/2018 11:45,7.86,1.62
01/01/2018 12:00,7.93,1.66
01/01/2018 12:15,8.07,1.68
01/01/2018 12:30,8.02,1.7
01/01/2018 12:45,7.99,1.71
01/01/2018 13:00,8.05,1.71
01/01/2018 13:15,8,1.63
01/01/2018 13:30,8.04,1.58
01/01/2018 13:45,8.17,1.75
01/01/2018 14:00,8.13,1.76
01/01/2018 14:15,8.38,1.87
01/01/2018 14:30,8.32,1.84
01/01/2018 14:45,8.33,1.85
01/01/2018 15:00,8.34,1.88
01/01/2018 15:15,8.43,1.93
01/01/2018 15:30,8.52,1.98
01/01/2018 15:45,8.44,1.96
01/01/2018 16:00,8.51,2.01
01/01/2018 16:15,8.57,2.01
01/01/2018 16:30,8.58,2.02
01/01/2018 16:45,8.7,2.07
01/01/2018 17:00,8.76,1.96
01/01/2018 17:15,8.71,1.96
01/01/2018 17:30,8.59,1.95
01/01/2018 17:45,8.53,1.82
01/01/2018 18:00,8.69,1.93
01/01/2018 18:15,8.06,1.53
01/01/2018 18:30,7.87,1.35
01/01/2018 18:45,7.79,1.26
01/01/2018 19:00,7.64,1.13
01/01/2018 19:15,7.49,0.92
01/01/2018 19:30,7.33,0.87
01/01/2018 19:45,7,0.82
01/01/2018 20:00,6.82,0.71
01/01/2018 20:15,6.64,0.61
01/01/2018 20:30,6.72,0.56
01/01/2018 20:45,6.72,0.53
01/01/2018 21:00,6.71,0.51
01/01/2018 21:15,6.51,0.44
01/01/2018 21:30,6.62,0.41
01/01/2018 21:45,6.54,0.37
01/01/2018 22:00,6.42,0.36
01/01/2018 22:15,6.35,0.37
01/01/2018 22:30,6.12,0.32
01/01/2018 22:45,6,0.37
01/01/2018 23:00,6.05,0.35
01/01/2018 23:15,6.1,0.32
01/01/2018 23:30,6.06,0.36
01/01/2018 23:45,6.02,0.39
02/01/2018 00:00,6.06,0.38
02/01/2018 00:15,6.08,0.35
02/01/2018 00:30,6.09,0.32
02/01/2018 00:45,5.96,0.31
02/01/2018 01:00,5.73,0.33
02/01/2018 01:15,5.53,0.34
02/01/2018 01:30,5.39,0.29
02/01/2018 01:45,5.2,0.24
02/01/2018 02:00,5.06,0.21
02/01/2018 02:15,5.03,0.22
02/01/2018 02:30,4.9,0.21
02/01/2018 02:45,4.9,0.24
02/01/2018 03:00,4.85,0.23
02/01/2018 03:15,4.86,0.31
02/01/2018 03:30,4.82,0.26
02/01/2018 03:45,4.87,0.27
02/01/2018 04:00,4.86,0.28
02/01/2018 04:15,4.81,0.26
02/01/2018 04:30,4.85,0.3
02/01/2018 04:45,5.02,0.37
02/01/2018 05:00,4.99,0.36
02/01/2018 05:15,5.02,0.41
02/01/2018 05:30,5.02,0.34
02/01/2018 05:45,5.28,0.42
02/01/2018 06:00,5.39,0.49
02/01/2018 06:15,5.68,0.56
02/01/2018 06:30,5.85,0.61
02/01/2018 06:45,6.09,0.64
02/01/2018 07:00,6.59,0.87
02/01/2018 07:15,7.2,1.15
02/01/2018 07:30,7.82,1.34
02/01/2018 07:45,8.05,1.34
02/01/2018 08:00,8.27,1.45
02/01/2018 08:15,8.57,1.56
02/01/2018 08:30,8.9,1.65
02/01/2018 08:45,9.09,1.82
02/01/2018 09:00,9.22,1.87
02/01/2018 09:15,9.82,2.06
02/01/2018 09:30,9.88,2.07
02/01/2018 09:45,10.14,2.24
02/01/2018 10:00,10.32,2.4
02/01/2018 10:15,10.47,2.55
02/01/2018 10:30,10.47,2.41
02/01/2018 10:45,10.5,2.42
02/01/2018 11:00,10.42,2.49
02/01/2018 11:15,10.49,2.62
02/01/2018 11:30,10.51,2.66
02/01/2018 11:45,10.49,2.6
02/01/2018 12:00,10.8,2.7
02/01/2018 12:15,10.69,2.69
02/01/2018 12:30,10.67,2.72
02/01/2018 12:45,10.78,2.75
02/01/2018 13:00,10.87,2.86
02/01/2018 13:15,10.93,2.95
02/01/2018 13:30,10.86,2.81
02/01/2018 13:45,10.9,2.89
02/01/2018 14:00,10.81,2.89
02/01/2018 14:15,10.78,2.95
02/01/2018 14:30,10.85,2.88
02/01/2018 14:45,10.76,2.82
02/01/2018 15:00,10.86,2.89
02/01/2018 15:15,10.94,2.83
02/01/2018 15:30,11,2.88
02/01/2018 15:45,11.03,2.96
02/01/2018 16:00,11.03,2.93
02/01/2018 16:15,10.98,2.83
02/01/2018 16:30,10.9,2.85
02/01/2018 16:45,10.9,2.87
02/01/2018 17:00,11.04,3
02/01/2018 17:15,10.91,2.86
02/01/2018 17:30,10.83,2.77
02/01/2018 17:45,10.23,2.31
02/01/2018 18:00,10.09,2.29
02/01/2018 18:15,9.48,1.95
02/01/2018 18:30,9.12,1.67
02/01/2018 18:45,8.75,1.41
02/01/2018 19:00,8.47,1.22
02/01/2018 19:15,8.14,1.06
02/01/2018 19:30,7.88,0.9
02/01/2018 19:45,7.7,0.88
02/01/2018 20:00,7.47,0.71
02/01/2018 20:15,7.29,0.59
02/01/2018 20:30,7.22,0.61
02/01/2018 20:45,7.27,0.58
02/01/2018 21:00,7.35,0.59
02/01/2018 21:15,7.15,0.47
02/01/2018 21:30,6.97,0.44
02/01/2018 21:45,6.9,0.45
02/01/2018 22:00,6.82,0.43
02/01/2018 22:15,6.77,0.45
02/01/2018 22:30,6.67,0.39
02/01/2018 22:45,6.58,0.42
02/01/2018 23:00,6.39,0.43
02/01/2018 23:15,6.34,0.45
02/01/2018 23:30,6.23,0.36
02/01/2018 23:45,6.18,0.34
03/01/2018 00:00,6.26,0.35
03/01/2018 00:15,6.17,0.38
03/01/2018 00:30,6.2,0.34
03/01/2018 00:45,6.06,0.33
03/01/2018 01:00,5.78,0.35
03/01/2018 01:15,5.57,0.35
03/01/2018 01:30,5.36,0.3
03/01/2018 01:45,5.18,0.26
03/01/2018 02:00,5.05,0.24
03/01/2018 02:15,4.99,0.23
03/01/2018 02:30,4.91,0.24
03/01/2018 02:45,4.91,0.28
03/01/2018 03:00,4.87,0.25
03/01/2018 03:15,4.88,0.3
03/01/2018 03:30,4.93,0.26
03/01/2018 03:45,4.93,0.28
03/01/2018 04:00,4.82,0.24
03/01/2018 04:15,4.77,0.19
03/01/2018 04:30,4.85,0.28
03/01/2018 04:45,4.95,0.3
03/01/2018 05:00,4.99,0.32
03/01/2018 05:15,5.11,0.36
03/01/2018 05:30,5.13,0.33
03/01/2018 05:45,5.2,0.38
03/01/2018 06:00,5.44,0.5
03/01/2018 06:15,5.95,0.7
03/01/2018 06:30,6.12,0.7
03/01/2018 06:45,6.23,0.74
03/01/2018 07:00,6.53,0.78
03/01/2018 07:15,7.41,1.14
03/01/2018 07:30,7.64,1.18
03/01/2018 07:45,7.91,1.28
03/01/2018 08:00,8.12,1.27
03/01/2018 08:15,8.44,1.37
03/01/2018 08:30,8.68,1.4
03/01/2018 08:45,8.85,1.48
03/01/2018 09:00,8.96,1.51
03/01/2018 09:15,9.32,1.74
03/01/2018 09:30,9.39,1.71
03/01/2018 09:45,9.45,1.71
03/01/2018 10:00,9.61,1.86
03/01/2018 10:15,9.66,1.77
03/01/2018 10:30,9.74,1.75
03/01/2018 10:45,9.79,1.74
03/01/2018 11:00,9.75,1.76
03/01/2018 11:15,9.9,1.91
03/01/2018 11:30,9.96,2
03/01/2018 11:45,10.11,2.19
03/01/2018 12:00,10.23,2.24
03/01/2018 12:15,10.3,2.25
03/01/2018 12:30,10.34,2.34
03/01/2018 12:45,10.52,2.42
03/01/2018 13:00,10.42,2.36
03/01/2018 13:15,10.6,2.57
03/01/2018 13:30,10.45,2.53
03/01/2018 13:45,10.35,2.44
03/01/2018 14:00,10.39,2.44
03/01/2018 14:15,10.48,2.65
03/01/2018 14:30,10.38,2.63
03/01/2018 14:45,10.46,2.59
03/01/2018 15:00,10.5,2.52
03/01/2018 15:15,10.52,2.5
03/01/2018 15:30,10.61,2.6
03/01/2018 15:45,10.71,2.67
03/01/2018 16:00,10.7,2.68
03/01/2018 16:15,10.49,2.56
03/01/2018 16:30,10.67,2.67
03/01/2018 16:45,10.75,2.65
03/01/2018 17:00,10.75,2.71
03/01/2018 17:15,10.49,2.6
03/01/2018 17:30,10.32,2.44
03/01/2018 17:45,10.02,2.3
03/01/2018 18:00,9.82,2.07
03/01/2018 18:15,9.24,1.66
03/01/2018 18:30,8.94,1.45
03/01/2018 18:45,8.71,1.38
03/01/2018 19:00,8.52,1.3
03/01/2018 19:15,8.1,1.06
03/01/2018 19:30,7.93,0.91
03/01/2018 19:45,7.75,0.91
03/01/2018 20:00,7.53,0.78
03/01/2018 20:15,7.49,0.75
03/01/2018 20:30,7.22,0.59
03/01/2018 20:45,7.06,0.53
03/01/2018 21:00,7,0.48
03/01/2018 21:15,6.98,0.44
03/01/2018 21:30,6.94,0.38
03/01/2018 21:45,6.86,0.4
03/01/2018 22:00,6.71,0.37
03/01/2018 22:15,6.55,0.4
03/01/2018 22:30,6.37,0.33
03/01/2018 22:45,6.22,0.32
03/01/2018 23:00,6.09,0.3
03/01/2018 23:15,6.1,0.28
03/01/2018 23:30,6.14,0.3
03/01/2018 23:45,6.2,0.3
04/01/2018 00:00,6.15,0.33
04/01/2018 00:15,6.24,0.3
04/01/2018 00:30,6.19,0.21
04/01/2018 00:45,5.97,0.21
04/01/2018 01:00,5.69,0.26
04/01/2018 01:15,5.57,0.26
04/01/2018 01:30,5.35,0.21
04/01/2018 01:45,5.19,0.24
04/01/2018 02:00,5.08,0.17
04/01/2018 02:15,5.05,0.21
04/01/2018 02:30,4.94,0.2
04/01/2018 02:45,4.86,0.22
04/01/2018 03:00,4.84,0.19
04/01/2018 03:15,4.81,0.21
04/01/2018 03:30,4.79,0.2
04/01/2018 03:45,4.91,0.19
04/01/2018 04:00,4.84,0.22
04/01/2018 04:15,4.84,0.23
04/01/2018 04:30,4.84,0.26
04/01/2018 04:45,4.97,0.31
04/01/2018 05:00,4.92,0.29
04/01/2018 05:15,5.1,0.33
04/01/2018 05:30,5.1,0.31
04/01/2018 05:45,5.23,0.32
04/01/2018 06:00,5.36,0.39
04/01/2018 06:15,5.73,0.5
04/01/2018 06:30,5.92,0.51
04/01/2018 06:45,6.09,0.55
04/01/2018 07:00,6.42,0.78
04/01/2018 07:15,7.09,1.01
04/01/2018 07:30,7.59,1.1
04/01/2018 07:45,8,1.12
04/01/2018 08:00,8.38,1.26
04/01/2018 08:15,8.84,1.5
04/01/2018 08:30,9.23,1.7
04/01/2018 08:45,9.41,1.77
04/01/2018 09:00,9.55,1.82
04/01/2018 09:15,10.07,2.08
04/01/2018 09:30,10.3,2.21
04/01/2018 09:45,10.43,2.3
04/01/2018 10:00,10.69,2.35
04/01/2018 10:15,10.93,2.51
04/01/2018 10:30,10.97,2.56
04/01/2018 10:45,11.1,2.67
04/01/2018 11:00,11.03,2.71
04/01/2018 11:15,10.87,2.64
04/01/2018 11:30,11.03,2.74
04/01/2018 11:45,11.06,2.79
04/01/2018 12:00,11.1,2.83
04/01/2018 12:15,11.16,2.78
04/01/2018 12:30,11.2,2.85
04/01/2018 12:45,11.43,3
04/01/2018 13:00,11.44,2.93
04/01/2018 13:15,11.28,2.84
04/01/2018 13:30,11.4,2.87
04/01/2018 13:45,11.4,2.92
04/01/2018 14:00,11.6,3.05
04/01/2018 14:15,11.4,3.06
04/01/2018 14:30,11.55,2.97
04/01/2018 14:45,11.71,3.07
04/01/2018 15:00,11.67,3.2
04/01/2018 15:15,11.64,3.21
04/01/2018 15:30,11.63,3.14
04/01/2018 15:45,11.62,3.1
04/01/2018 16:00,11.82,3.16
04/01/2018 16:15,11.88,3.19
04/01/2018 16:30,11.81,3.21
04/01/2018 16:45,11.65,3.1
04/01/2018 17:00,11.5,3.04
04/01/2018 17:15,11.36,2.92
04/01/2018 17:30,11.35,2.93
04/01/2018 17:45,10.89,2.7
04/01/2018 18:00,10.53,2.5
04/01/2018 18:15,9.67,1.94
04/01/2018 18:30,9.35,1.84
04/01/2018 18:45,9.18,1.66
04/01/2018 19:00,8.86,1.49
04/01/2018 19:15,8.46,1.19
04/01/2018 19:30,8.28,1.12
04/01/2018 19:45,8.17,0.98
04/01/2018 20:00,7.94,0.83
04/01/2018 20:15,7.66,0.75
04/01/2018 20:30,7.43,0.75
04/01/2018 20:45,7.38,0.71
04/01/2018 21:00,7.36,0.71
04/01/2018 21:15,7.23,0.59
04/01/2018 21:30,7.15,0.46
04/01/2018 21:45,7.01,0.43
04/01/2018 22:00,6.95,0.46
04/01/2018 22:15,6.84,0.46
04/01/2018 22:30,6.72,0.49
04/01/2018 22:45,6.54,0.5
04/01/2018 23:00,6.36,0.49
04/01/2018 23:15,6.3,0.48
04/01/2018 23:30,6.23,0.42
04/01/2018 23:45,6.19,0.42
05/01/2018 00:00,6.2,0.42
05/01/2018 00:15,6.24,0.41
05/01/2018 00:30,6.22,0.28
05/01/2018 00:45,6.03,0.29
05/01/2018 01:00,5.78,0.3
05/01/2018 01:15,5.54,0.29
05/01/2018 01:30,5.41,0.3
05/01/2018 01:45,5.2,0.29
05/01/2018 02:00,5.17,0.3
05/01/2018 02:15,5.04,0.22
05/01/2018 02:30,4.99,0.22
05/01/2018 02:45,4.87,0.2
05/01/2018 03:00,4.86,0.19
05/01/2018 03:15,4.88,0.21
05/01/2018 03:30,4.87,0.19
05/01/2018 03:45,4.9,0.27
05/01/2018 04:00,4.89,0.28
05/01/2018 04:15,4.85,0.28
05/01/2018 04:30,4.9,0.31
05/01/2018 04:45,5.02,0.36
05/01/2018 05:00,4.99,0.36
05/01/2018 05:15,5.16,0.42
05/01/2018 05:30,5.23,0.36
05/01/2018 05:45,5.26,0.37
05/01/2018 06:00,5.35,0.39
05/01/2018 06:15,5.7,0.51
05/01/2018 06:30,5.96,0.58
05/01/2018 06:45,6.13,0.56
05/01/2018 07:00,6.53,0.68
05/01/2018 07:15,7.41,0.99
05/01/2018 07:30,7.86,1.16
05/01/2018 07:45,8.25,1.31
05/01/2018 08:00,8.88,1.5
05/01/2018 08:15,9.13,1.63
05/01/2018 08:30,9.33,1.73
05/01/2018 08:45,9.61,1.91
05/01/2018 09:00,9.89,2.15
05/01/2018 09:15,10.33,2.33
05/01/2018 09:30,10.65,2.48
05/01/2018 09:45,10.91,2.56
05/01/2018 10:00,11.01,2.62
05/01/2018 10:15,11.13,2.68
05/01/2018 10:30,11.32,2.84
05/01/2018 10:45,11.4,2.83
05/01/2018 11:00,11.45,2.89
05/01/2018 11:15,11.61,3.12
05/01/2018 11:30,11.47,3.08
05/01/2018 11:45,11.56,2.89
05/01/2018 12:00,11.58,2.98
05/01/2018 12:15,11.63,3.05
05/01/2018 12:30,11.6,3.06
05/01/2018 12:45,11.64,3.06
05/01/2018 13:00,11.85,3.09
05/01/2018 13:15,11.93,3.28
05/01/2018 13:30,11.98,3.29
05/01/2018 13:45,12.25,3.46
05/01/2018 14:00,12.2,3.32
05/01/2018 14:15,12.15,3.36
05/01/2018 14:30,12.55,3.52
05/01/2018 14:45,12.54,3.6
05/01/2018 15:00,12.36,3.53
05/01/2018 15:15,12.41,3.52
05/01/2018 15:30,12.83,3.78
05/01/2018 15:45,13.01,3.75
05/01/2018 16:00,13.15,3.78
05/01/2018 16:15,13.13,3.74
05/01/2018 16:30,13.32,3.82
05/01/2018 16:45,13.68,3.99
05/01/2018 17:00,13.59,3.89
05/01/2018 17:15,13.34,3.86
05/01/2018 17:30,13.07,3.67
05/01/2018 17:45,12.77,3.54
05/01/2018 18:00,12.61,3.52
05/01/2018 18:15,11.74,2.85
05/01/2018 18:30,11.33,2.56
05/01/2018 18:45,11.28,2.43
05/01/2018 19:00,10.95,2.23
05/01/2018 19:15,10.37,1.98
05/01/2018 19:30,9.93,1.81
05/01/2018 19:45,9.51,1.58
05/01/2018 20:00,9.25,1.44
05/01/2018 20:15,8.99,1.34
05/01/2018 20:30,8.9,1.26
05/01/2018 20:45,8.85,1.31
05/01/2018 21:00,8.68,1.33
05/01/2018 21:15,8.25,1.1
05/01/2018 21:30,8.24,1.08
05/01/2018 21:45,8.28,1.17
05/01/2018 22:00,8.22,1.09
05/01/2018 22:15,8.13,1.06
05/01/2018 22:30,7.97,1.07
05/01/2018 22:45,7.9,1.08
05/01/2018 23:00,7.6,1.03
05/01/2018 23:15,7.32,0.96
05/01/2018 23:30,7.38,0.85
05/01/2018 23:45,7.36,0.83
06/01/2018 00:00,7.27,0.78
06/01/2018 00:15,7.22,0.73
06/01/2018 00:30,7.34,0.74
06/01/2018 00:45,7.05,0.68
06/01/2018 01:00,6.73,0.67
06/01/2018 01:15,6.47,0.63
06/01/2018 01:30,6.17,0.57
06/01/2018 01:45,5.96,0.55
06/01/2018 02:00,5.78,0.52
06/01/2018 02:15,5.73,0.52
06/01/2018 02:30,5.62,0.51
06/01/2018 02:45,5.59,0.55
06/01/2018 03:00,5.5,0.51
06/01/2018 03:15,5.49,0.51
06/01/2018 03:30,5.42,0.44
06/01/2018 03:45,5.3,0.39
06/01/2018 04:00,5.34,0.42
06/01/2018 04:15,5.3,0.42
06/01/2018 04:30,5.23,0.4
06/01/2018 04:45,5.26,0.42
06/01/2018 05:00,5.24,0.4
06/01/2018 05:15,5.32,0.45
06/01/2018 05:30,5.31,0.4
06/01/2018 05:45,5.36,0.4
06/01/2018 06:00,5.31,0.39
06/01/2018 06:15,5.38,0.37
06/01/2018 06:30,5.41,0.41
06/01/2018 06:45,5.47,0.41
06/01/2018 07:00,5.55,0.48
06/01/2018 07:15,5.8,0.58
06/01/2018 07:30,5.98,0.65
06/01/2018 07:45,6.32,0.8
06/01/2018 08:00,6.52,0.9
06/01/2018 08:15,6.95,0.99
06/01/2018 08:30,7.59,1.13
06/01/2018 08:45,7.75,1.19
06/01/2018 09:00,7.96,1.29
06/01/2018 09:15,8.8,1.62
06/01/2018 09:30,9.3,1.88
06/01/2018 09:45,9.63,2.03
06/01/2018 10:00,9.94,2.12
06/01/2018 10:15,10.3,2.16
06/01/2018 10:30,10.67,2.25
06/01/2018 10:45,11.01,2.38
06/01/2018 11:00,11.15,2.49
06/01/2018 11:15,11.29,2.49
06/01/2018 11:30,11.52,2.42
06/01/2018 11:45,11.76,2.55
06/01/2018 12:00,12.06,2.71
06/01/2018 12:15,12.17,2.77
06/01/2018 12:30,12.18,2.72
06/01/2018 12:45,12.29,2.68
06/01/2018 13:00,12.25,2.59
06/01/2018 13:15,12.35,2.68
06/01/2018 13:30,12.56,2.8
06/01/2018 13:45,12.47,2.73
06/01/2018 14:00,12.58,2.72
06/01/2018 14:15,12.67,2.73
06/01/2018 14:30,12.77,2.81
06/01/2018 14:45,12.82,2.75
06/01/2018 15:00,12.92,2.77
06/01/2018 15:15,12.96,2.75
06/01/2018 15:30,12.97,2.78
06/01/2018 15:45,12.9,2.73
06/01/2018 16:00,13.15,2.67
06/01/2018 16:15,13.18,2.67
06/01/2018 16:30,13.18,2.67
06/01/2018 16:45,13.23,2.63
06/01/2018 17:00,13.26,2.71
06/01/2018 17:15,13.09,2.68
06/01/2018 17:30,12.85,2.57
06/01/2018 17:45,12.75,2.52
06/01/2018 18:00,11.99,2.33
06/01/2018 18:15,10.81,2.03
06/01/2018 18:30,10.57,2.01
06/01/2018 18:45,10.18,1.91
06/01/2018 19:00,9.82,1.81
06/01/2018 19:15,9.49,1.6
06/01/2018 19:30,9.27,1.54
06/01/2018 19:45,9.13,1.47
06/01/2018 20:00,8.86,1.43
06/01/2018 20:15,8.74,1.36
06/01/2018 20:30,8.58,1.3
06/01/2018 20:45,8.66,1.34
06/01/2018 21:00,8.77,1.34
06/01/2018 21:15,8.81,1.36
06/01/2018 21:30,8.79,1.38
06/01/2018 21:45,8.8,1.43
06/01/2018 22:00,8.55,1.31
06/01/2018 22:15,8.59,1.23
06/01/2018 22:30,8.49,1.2
06/01/2018 22:45,8.37,1.19
06/01/2018 23:00,8.11,1.14
06/01/2018 23:15,8.04,1.17
06/01/2018 23:30,8.03,1.16
06/01/2018 23:45,7.94,1.1
07/01/2018 00:00,7.75,1.06
07/01/2018 00:15,7.76,1.08
07/01/2018 00:30,7.78,1.01
07/01/2018 00:45,7.59,0.98
07/01/2018 01:00,7.29,0.94
07/01/2018 01:15,6.99,0.89
07/01/2018 01:30,6.72,0.86
07/01/2018 01:45,6.39,0.8
07/01/2018 02:00,6.2,0.76
07/01/2018 02:15,6.09,0.76
07/01/2018 02:30,6.08,0.76
07/01/2018 02:45,5.97,0.77
07/01/2018 03:00,5.93,0.77
07/01/2018 03:15,5.83,0.7
07/01/2018 03:30,5.85,0.72
07/01/2018 03:45,5.77,0.69
07/01/2018 04:00,5.67,0.68
07/01/2018 04:15,5.62,0.68
07/01/2018 04:30,5.61,0.63
07/01/2018 04:45,5.62,0.65
07/01/2018 05:00,5.56,0.61
07/01/2018 05:15,5.51,0.6
07/01/2018 05:30,5.55,0.64
07/01/2018 05:45,5.49,0.59
07/01/2018 06:00,5.52,0.57
07/01/2018 06:15,5.42,0.49
07/01/2018 06:30,5.43,0.49
07/01/2018 06:45,5.45,0.5
07/01/2018 07:00,5.48,0.49
07/01/2018 07:15,5.61,0.6
07/01/2018 07:30,5.75,0.64
07/01/2018 07:45,5.99,0.71
07/01/2018 08:00,5.99,0.7
07/01/2018 08:15,6.09,0.71
07/01/2018 08:30,6.26,0.7
07/01/2018 08:45,6.49,0.78
07/01/2018 09:00,6.64,0.88
07/01/2018 09:15,6.94,0.97
07/01/2018 09:30,6.96,0.88
07/01/2018 09:45,7.06,0.93
07/01/2018 10:00,7.19,0.95
07/01/2018 10:15,7.45,1.13
07/01/2018 10:30,7.54,1.15
07/01/2018 10:45,7.65,0.97
07/01/2018 11:00,7.73,1.06
07/01/2018 11:15,7.79,1.12
07/01/2018 11:30,7.89,1.16
07/01/2018 11:45,8.07,1.12
07/01/2018 12:00,7.97,1.16
07/01/2018 12:15,7.98,1.17
07/01/2018 12:30,7.85,1.21
07/01/2018 12:45,7.77,1.2
07/01/2018 13:00,7.87,1.17
07/01/2018 13:15,7.83,1.16
07/01/2018 13:30,7.72,1.16
07/01/2018 13:45,7.77,1.07
07/01/2018 14:00,7.77,1.03
07/01/2018 14:15,7.66,1.03
07/01/2018 14:30,7.76,1.07
07/01/2018 14:45,7.72,1.07
07/01/2018 15:00,7.77,1
07/01/2018 15:15,7.77,0.98
07/01/2018 15:30,7.83,1.04
07/01/2018 15:45,7.7,0.99
07/01/2018 16:00,7.46,0.95
07/01/2018 16:15,7.45,0.98
07/01/2018 16:30,7.57,1.03
07/01/2018 16:45,7.49,1.04
07/01/2018 17:00,7.51,1.05
07/01/2018 17:15,7.52,1.01
07/01/2018 17:30,7.62,1.01
07/01/2018 17:45,7.51,0.94
07/01/2018 18:00,7.53,0.93
07/01/2018 18:15,7.7,0.93
07/01/2018 18:30,7.76,0.9
07/01/2018 18:45,7.78,0.85
07/01/2018 19:00,7.7,0.68
07/01/2018 19:15,7.6,0.59
07/01/2018 19:30,7.45,0.61
07/01/2018 19:45,7.31,0.58
07/01/2018 20:00,7.29,0.61
07/01/2018 20:15,7.12,0.56
07/01/2018 20:30,7.02,0.53
07/01/2018 20:45,7.04,0.53
07/01/2018 21:00,7,0.5
07/01/2018 21:15,7.03,0.54
07/01/2018 21:30,7.04,0.52
07/01/2018 21:45,7.04,0.48
07/01/2018 22:00,6.89,0.5
07/01/2018 22:15,6.83,0.5
07/01/2018 22:30,6.64,0.48
07/01/2018 22:45,6.46,0.5
07/01/2018 23:00,6.34,0.49
07/01/2018 23:15,6.21,0.45
07/01/2018 23:30,6.34,0.45
07/01/2018 23:45,6.3,0.41
08/01/2018 00:00,6.25,0.38
08/01/2018 00:15,6.31,0.32
08/01/2018 00:30,6.43,0.36
08/01/2018 00:45,6.3,0.36
08/01/2018 01:00,6.12,0.42
08/01/2018 01:15,5.87,0.43
08/01/2018 01:30,5.65,0.41
08/01/2018 01:45,5.55,0.41
08/01/2018 02:00,5.45,0.43
08/01/2018 02:15,5.31,0.44
08/01/2018 02:30,5.26,0.44
08/01/2018 02:45,5.19,0.38
08/01/2018 03:00,5.1,0.35
08/01/2018 03:15,5.09,0.33
08/01/2018 03:30,5.11,0.32
08/01/2018 03:45,5.11,0.33
08/01/2018 04:00,5.11,0.37
08/01/2018 04:15,5.24,0.44
08/01/2018 04:30,5.24,0.43
08/01/2018 04:45,5.33,0.48
08/01/2018 05:00,5.33,0.48
08/01/2018 05:15,5.63,0.7
08/01/2018 05:30,5.64,0.65
08/01/2018 05:45,5.87,0.73
08/01/2018 06:00,6.06,0.82
08/01/2018 06:15,6.61,1.02
08/01/2018 06:30,6.92,1.02
08/01/2018 06:45,7.25,1.1
08/01/2018 07:00,7.76,1.16
08/01/2018 07:15,8.72,1.53
08/01/2018 07:30,9.4,1.72
08/01/2018 07:45,9.75,1.86
08/01/2018 08:00,10.12,1.99
08/01/2018 08:15,10.54,2.19
08/01/2018 08:30,10.67,2.24
08/01/2018 08:45,10.88,2.33
08/01/2018 09:00,11.27,2.53
08/01/2018 09:15,11.41,2.55
08/01/2018 09:30,11.58,2.64
08/01/2018 09:45,11.78,2.81
08/01/2018 10:00,11.99,2.88
08/01/2018 10:15,11.99,2.82
08/01/2018 10:30,11.88,2.72
08/01/2018 10:45,11.87,2.79
08/01/2018 11:00,12.08,2.89
08/01/2018 11:15,11.99,2.84
08/01/2018 11:30,11.9,2.91
08/01/2018 11:45,12.02,2.93
08/01/2018 12:00,12.19,3.05
08/01/2018 12:15,12.42,3.14
08/01/2018 12:30,12.6,3.26
08/01/2018 12:45,12.81,3.4
08/01/2018 13:00,12.76,3.32
08/01/2018 13:15,12.81,3.36
08/01/2018 13:30,13.06,3.47
08/01/2018 13:45,13.07,3.5
08/01/2018 14:00,13.09,3.57
08/01/2018 14:15,12.96,3.47
08/01/2018 14:30,12.85,3.34
08/01/2018 14:45,12.9,3.34
08/01/2018 15:00,12.69,3.22
08/01/2018 15:15,12.48,3.22
08/01/2018 15:30,12.47,3.21
08/01/2018 15:45,12.33,3.2
08/01/2018 16:00,12.29,3.26
08/01/2018 16:15,12.36,3.35
08/01/2018 16:30,12.43,3.37
08/01/2018 16:45,12.66,3.5
08/01/2018 17:00,12.61,3.44
08/01/2018 17:15,12.38,3.32
08/01/2018 17:30,12.11,3.09
08/01/2018 17:45,11.62,2.88
08/01/2018 18:00,11.12,2.48
08/01/2018 18:15,10.4,1.92
08/01/2018 18:30,10.03,1.69
08/01/2018 18:45,9.71,1.68
08/01/2018 19:00,9.39,1.43
08/01/2018 19:15,8.91,1.18
08/01/2018 19:30,8.72,1.06
08/01/2018 19:45,8.6,1.06
08/01/2018 20:00,8.32,0.98
08/01/2018 20:15,8.04,0.86
08/01/2018 20:30,8,0.82
08/01/2018 20:45,7.88,0.79
08/01/2018 21:00,7.74,0.75
08/01/2018 21:15,7.73,0.69
08/01/2018 21:30,7.75,0.62
08/01/2018 21:45,7.59,0.54
08/01/2018 22:00,7.38,0.55
08/01/2018 22:15,7.18,0.52
08/01/2018 22:30,7.05,0.55
08/01/2018 22:45,6.94,0.54
08/01/2018 23:00,6.73,0.45
08/01/2018 23:15,6.52,0.42
08/01/2018 23:30,6.62,0.4
08/01/2018 23:45,6.56,0.44
09/01/2018 00:00,6.5,0.48
09/01/2018 00:15,6.58,0.5
09/01/2018 00:30,6.58,0.44
09/01/2018 00:45,6.38,0.45
09/01/2018 01:00,6.03,0.42
09/01/2018 01:15,5.84,0.43
09/01/2018 01:30,5.67,0.29
09/01/2018 01:45,5.49,0.36
09/01/2018 02:00,5.38,0.39
09/01/2018 02:15,5.29,0.38
09/01/2018 02:30,5.2,0.37
09/01/2018 02:45,5.21,0.44
09/01/2018 03:00,5.18,0.38
09/01/2018 03:15,5.13,0.36
09/01/2018 03:30,5.1,0.29
09/01/2018 03:45,5.04,0.23
09/01/2018 04:00,5.08,0.28
09/01/2018 04:15,5.03,0.29
09/01/2018 04:30,5.03,0.37
09/01/2018 04:45,5.17,0.41
09/01/2018 05:00,5.21,0.4
09/01/2018 05:15,5.4,0.51
09/01/2018 05:30,5.56,0.52
09/01/2018 05:45,5.63,0.51
09/01/2018 06:00,5.74,0.53
09/01/2018 06:15,6.23,0.69
09/01/2018 06:30,6.51,0.72
09/01/2018 06:45,6.82,0.74
09/01/2018 07:00,7.23,0.86
09/01/2018 07:15,8.26,1.22
09/01/2018 07:30,8.92,1.41
09/01/2018 07:45,9.45,1.54
09/01/2018 08:00,9.93,1.74
09/01/2018 08:15,10.22,2.01
09/01/2018 08:30,10.58,2.18
09/01/2018 08:45,10.79,2.25
09/01/2018 09:00,11.2,2.49
09/01/2018 09:15,11.45,2.7
09/01/2018 09:30,11.68,2.83
09/01/2018 09:45,11.82,2.93
09/01/2018 10:00,11.93,3.03
09/01/2018 10:15,12.08,3.07
09/01/2018 10:30,12.28,3.23
09/01/2018 10:45,12.43,3.3
09/01/2018 11:00,12.66,3.33
09/01/2018 11:15,12.58,3.18
09/01/2018 11:30,12.61,3.31
09/01/2018 11:45,12.77,3.41
09/01/2018 12:00,12.79,3.49
09/01/2018 12:15,12.85,3.42
09/01/2018 12:30,12.84,3.39
09/01/2018 12:45,12.67,3.31
09/01/2018 13:00,12.68,3.38
09/01/2018 13:15,12.63,3.33
09/01/2018 13:30,12.81,3.35
09/01/2018 13:45,12.73,3.31
09/01/2018 14:00,12.6,3.21
09/01/2018 14:15,12.48,3.25
09/01/2018 14:30,12.55,3.25
09/01/2018 14:45,12.53,3.26
09/01/2018 15:00,12.41,3.27
09/01/2018 15:15,12.31,3.18
09/01/2018 15:30,12.22,3.22
09/01/2018 15:45,12.19,3.34
09/01/2018 16:00,12.25,3.27
09/01/2018 16:15,12.23,3.24
09/01/2018 16:30,12.2,3.2
09/01/2018 16:45,12.11,3.06
09/01/2018 17:00,12.15,3.04
09/01/2018 17:15,12,3.03
09/01/2018 17:30,11.76,2.92
09/01/2018 17:45,11.15,2.55
09/01/2018 18:00,10.8,2.35
09/01/2018 18:15,10.3,2.01
09/01/2018 18:30,9.86,1.82
09/01/2018 18:45,9.7,1.7
09/01/2018 19:00,9.46,1.52
09/01/2018 19:15,9.02,1.18
09/01/2018 19:30,8.71,1
09/01/2018 19:45,8.6,0.99
09/01/2018 20:00,8.22,0.89
09/01/2018 20:15,7.99,0.79
09/01/2018 20:30,7.77,0.72
09/01/2018 20:45,7.77,0.69
09/01/2018 21:00,7.95,0.67
09/01/2018 21:15,7.78,0.58
09/01/2018 21:30,7.7,0.55
09/01/2018 21:45,7.66,0.51